• en Belgique
  • Liste des pays
  • À 7 jours
  • Température de l'eau
  • Carte satellitaire
  • Carte météo
  • Widgets météo
  • user-avatar
    Se connecter

    Météo par heure à Binche

    Ce jour, 22 Mai, Mardi

    Heure Température Précipitation Vent Pression Humidité
    00:00 +14°C° 0,1 mm 1 m/s 747 mmHg 90%
    01:00 +14°C° 0 mm 1 m/s 747 mmHg 91%
    02:00 +13°C° 0 mm 1 m/s 747 mmHg 91%
    03:00 +13°C° 0 mm 1 m/s 747 mmHg 92%
    04:00 +14°C° 0 mm 1 m/s 747 mmHg 91%
    05:00 +15°C° 0 mm 1 m/s 747 mmHg 90%
    06:00 +16°C° 0 mm 1 m/s 747 mmHg 89%
    07:00 +18°C° 0 mm 1 m/s 748 mmHg 83%
    08:00 +20°C° 0 mm 1 m/s 748 mmHg 77%
    09:00 +22°C° 0 mm 1 m/s 748 mmHg 71%
    10:00 +22°C° 0 mm 1 m/s 748 mmHg 67%
    11:00 +23°C° 0 mm 1 m/s 748 mmHg 63%
    12:00 +24°C° 0 mm 1 m/s 748 mmHg 60%
    13:00 +24°C° 0,5 mm 1 m/s 748 mmHg 61%
    14:00 +24°C° 0,5 mm 1 m/s 748 mmHg 62%
    15:00 +24°C° 0,5 mm 1 m/s 748 mmHg 63%
    16:00 +23°C° 0,5 mm 1 m/s 748 mmHg 68%
    17:00 +23°C° 0,5 mm 2 m/s 748 mmHg 73%
    18:00 +21°C° 0,5 mm 2 m/s 748 mmHg 79%
    19:00 +19°C° 0,5 mm 2 m/s 749 mmHg 82%
    20:00 +17°C° 0,5 mm 2 m/s 749 mmHg 86%
    21:00 +16°C° 0,5 mm 2 m/s 749 mmHg 90%
    22:00 +15°C° 0,3 mm 1 m/s 749 mmHg 91%
    23:00 +15°C° 0,3 mm 1 m/s 750 mmHg 92%

    Demain, 23 Mai, Mercredi

    Heure Température Précipitation Vent Pression Humidité
    00:00 +15°C° 0,3 mm 1 m/s 750 mmHg 92%
    01:00 +14°C° 0 mm 1 m/s 750 mmHg 93%
    02:00 +14°C° 0 mm 1 m/s 750 mmHg 93%
    03:00 +14°C° 0 mm 1 m/s 750 mmHg 94%
    04:00 +14°C° 0 mm 1 m/s 751 mmHg 93%
    05:00 +15°C° 0 mm 1 m/s 751 mmHg 92%
    06:00 +16°C° 0 mm 1 m/s 751 mmHg 92%
    07:00 +19°C° 0,7 mm 1 m/s 751 mmHg 87%
    08:00 +19°C° 0,7 mm 2 m/s 752 mmHg 83%
    09:00 +21°C° 0,7 mm 2 m/s 752 mmHg 78%
    10:00 +23°C° 1 mm 2 m/s 752 mmHg 75%
    11:00 +22°C° 1 mm 3 m/s 752 mmHg 72%
    12:00 +24°C° 1 mm 3 m/s 752 mmHg 69%
    13:00 +23°C° 0,7 mm 4 m/s 752 mmHg 70%
    14:00 +23°C° 0,7 mm 4 m/s 752 mmHg 71%
    15:00 +23°C° 0,7 mm 4 m/s 752 mmHg 73%
    16:00 +22°C° 0,2 mm 4 m/s 752 mmHg 76%
    17:00 +21°C° 0,2 mm 4 m/s 752 mmHg 80%
    18:00 +21°C° 0,2 mm 3 m/s 752 mmHg 83%
    19:00 +19°C° 0,2 mm 3 m/s 752 mmHg 85%
    20:00 +18°C° 0,2 mm 3 m/s 752 mmHg 87%
    21:00 +17°C° 0,2 mm 3 m/s 753 mmHg 89%
    22:00 +17°C° 0,1 mm 3 m/s 752 mmHg 89%
    23:00 +16°C° 0,1 mm 3 m/s 752 mmHg 90%

    Après-demain, 24 Mai, Jeudi

    Heure Température Précipitation Vent Pression Humidité
    00:00 +16°C° 0,1 mm 3 m/s 752 mmHg 90%
    01:00 +16°C° 0,2 mm 3 m/s 752 mmHg 91%
    02:00 +14°C° 0,2 mm 3 m/s 752 mmHg 91%
    03:00 +14°C° 0,2 mm 3 m/s 752 mmHg 92%
    04:00 +16°C° 0,2 mm 3 m/s 752 mmHg 92%
    05:00 +16°C° 0,2 mm 3 m/s 753 mmHg 91%
    06:00 +16°C° 0,2 mm 3 m/s 753 mmHg 91%
    07:00 +18°C° 0,3 mm 3 m/s 753 mmHg 89%
    08:00 +19°C° 0,3 mm 3 m/s 753 mmHg 87%
    09:00 +20°C° 0,3 mm 3 m/s 753 mmHg 84%
    10:00 +21°C° 0,9 mm 3 m/s 753 mmHg 81%
    11:00 +22°C° 0,9 mm 3 m/s 752 mmHg 78%
    12:00 +24°C° 0,9 mm 3 m/s 752 mmHg 75%
    13:00 +24°C° 2 mm 3 m/s 752 mmHg 75%
    14:00 +24°C° 2 mm 2 m/s 752 mmHg 76%
    15:00 +24°C° 2 mm 2 m/s 751 mmHg 76%
    16:00 +23°C° 0,5 mm 1 m/s 751 mmHg 79%
    17:00 +23°C° 0,5 mm 1 m/s 751 mmHg 81%
    18:00 +22°C° 0,5 mm 1 m/s 751 mmHg 84%
    19:00 +21°C° 0,6 mm 1 m/s 751 mmHg 86%
    20:00 +20°C° 0,6 mm 1 m/s 751 mmHg 88%
    21:00 +19°C° 0,6 mm 1 m/s 751 mmHg 90%
    22:00 +18°C° 0,1 mm 1 m/s 751 mmHg 91%
    23:00 +18°C° 0,1 mm 1 m/s 751 mmHg 91%

    25 Mai, Vendredi

    Heure Température Précipitation Vent Pression Humidité
    00:00 +16°C° 0,1 mm 1 m/s 751 mmHg 91%
    01:00 +16°C° 0 mm 1 m/s 751 mmHg 92%
    02:00 +16°C° 0 mm 1 m/s 751 mmHg 92%
    03:00 +15°C° 0 mm 1 m/s 751 mmHg 92%
    04:00 +16°C° 0 mm 2 m/s 751 mmHg 91%
    05:00 +17°C° 0 mm 2 m/s 751 mmHg 90%
    06:00 +18°C° 0 mm 2 m/s 751 mmHg 89%
    07:00 +19°C° 0 mm 2 m/s 752 mmHg 83%
    08:00 +21°C° 0 mm 2 m/s 752 mmHg 77%
    09:00 +24°C° 0 mm 2 m/s 752 mmHg 71%
    10:00 +25°C° 0 mm 2 m/s 752 mmHg 67%
    11:00 +25°C° 0 mm 2 m/s 752 mmHg 63%
    12:00 +26°C° 0 mm 2 m/s 752 mmHg 59%
    13:00 +26°C° 0,3 mm 2 m/s 752 mmHg 60%
    14:00 +26°C° 0,3 mm 2 m/s 752 mmHg 62%
    15:00 +26°C° 0,3 mm 1 m/s 752 mmHg 63%
    16:00 +26°C° 0,7 mm 1 m/s 752 mmHg 69%
    17:00 +25°C° 0,7 mm 1 m/s 752 mmHg 74%
    18:00 +24°C° 0,7 mm 1 m/s 752 mmHg 79%
    19:00 +23°C° 0,1 mm 1 m/s 752 mmHg 81%
    20:00 +21°C° 0,1 mm 1 m/s 752 mmHg 84%
    21:00 +19°C° 0,1 mm 1 m/s 752 mmHg 86%
    22:00 +19°C° 0 mm 1 m/s 753 mmHg 87%
    23:00 +19°C° 0 mm 1 m/s 753 mmHg 88%

    26 Mai, Samedi

    Heure Température Précipitation Vent Pression Humidité
    00:00 +18°C° 0 mm 1 m/s 753 mmHg 89%
    01:00 +18°C° 0 mm 1 m/s 753 mmHg 89%
    02:00 +16°C° 0 mm 1 m/s 753 mmHg 90%
    03:00 +16°C° 0 mm 1 m/s 753 mmHg 90%
    04:00 +18°C° 0 mm 1 m/s 753 mmHg 89%
    05:00 +19°C° 0 mm 1 m/s 753 mmHg 88%
    06:00 +20°C° 0 mm 1 m/s 753 mmHg 87%
    07:00 +22°C° 0 mm 1 m/s 753 mmHg 82%
    08:00 +23°C° 0 mm 1 m/s 754 mmHg 76%
    09:00 +25°C° 0 mm 2 m/s 754 mmHg 71%
    10:00 +26°C° 0 mm 2 m/s 754 mmHg 68%
    11:00 +27°C° 0 mm 1 m/s 754 mmHg 64%
    12:00 +28°C° 0 mm 1 m/s 754 mmHg 61%
    13:00 +27°C° 0,6 mm 1 m/s 754 mmHg 64%
    14:00 +27°C° 0,6 mm 1 m/s 753 mmHg 67%
    15:00 +27°C° 0,6 mm 1 m/s 753 mmHg 71%
    16:00 +26°C° 0,2 mm 2 m/s 753 mmHg 74%
    17:00 +25°C° 0,2 mm 2 m/s 753 mmHg 78%
    18:00 +24°C° 0,2 mm 2 m/s 753 mmHg 82%
    19:00 +23°C° 0 mm 2 m/s 753 mmHg 84%
    20:00 +21°C° 0 mm 2 m/s 754 mmHg 87%
    21:00 +19°C° 0 mm 2 m/s 754 mmHg 89%
    22:00 +19°C° 0,1 mm 2 m/s 754 mmHg 90%
    23:00 +19°C° 0,1 mm 2 m/s 754 mmHg 90%

    27 Mai, Dimanche

    Heure Température Précipitation Vent Pression Humidité
    00:00 +18°C° 0,1 mm 2 m/s 754 mmHg 91%
    01:00 +18°C° 0,2 mm 2 m/s 753 mmHg 91%
    02:00 +18°C° 0,2 mm 2 m/s 753 mmHg 90%
    03:00 +18°C° 0,2 mm 2 m/s 753 mmHg 90%
    04:00 +19°C° 0 mm 3 m/s 753 mmHg 88%
    05:00 +20°C° 0 mm 3 m/s 753 mmHg 87%
    06:00 +20°C° 0 mm 3 m/s 753 mmHg 85%
    07:00 +22°C° 0 mm 3 m/s 753 mmHg 79%
    08:00 +25°C° 0 mm 4 m/s 753 mmHg 74%
    09:00 +27°C° 0 mm 4 m/s 753 mmHg 68%
    10:00 +29°C° 0 mm 4 m/s 753 mmHg 64%
    11:00 +30°C° 0 mm 4 m/s 753 mmHg 61%
    12:00 +32°C° 0 mm 5 m/s 753 mmHg 57%
    13:00 +32°C° 0 mm 4 m/s 752 mmHg 58%
    14:00 +33°C° 0 mm 4 m/s 752 mmHg 58%
    15:00 +33°C° 0 mm 4 m/s 752 mmHg 59%
    16:00 +31°C° 0,1 mm 3 m/s 752 mmHg 63%
    17:00 +30°C° 0,1 mm 3 m/s 752 mmHg 68%
    18:00 +29°C° 0,1 mm 2 m/s 752 mmHg 73%
    19:00 +27°C° 0,1 mm 2 m/s 752 mmHg 76%
    20:00 +26°C° 0,1 mm 2 m/s 752 mmHg 78%
    21:00 +24°C° 0,1 mm 3 m/s 752 mmHg 81%
    22:00 +24°C° 0 mm 3 m/s 752 mmHg 82%
    23:00 +22°C° 0 mm 3 m/s 752 mmHg 82%
    Voir plus